Notices

What's New in latest Release from April 7th, 2021:

- Updated Glossary, including Speed of Maximum Gust, and Total Hourly Precipitation

- Updated national and regional climate services offices contacts and prices information

- Addition of station inventory lists for 1981-2010, 1971-2000, and 1961-1990 Normals.

If you haven't already, please take our survey and provide feedback about our website: https://eccc.sondage-survey.ca/f/LanguageSelection.aspx?s=442ca660-fcf1-47c0-95a9-59707d6fd709

Hourly Data Report for November 17, 2006

TORONTO CITY
ONTARIO

43°40'00.000" N
79°24'00.000" W
112.50 m
6158355
71508
XTO

Download Data

Hourly Data (November 2006)
Hourly Data Report for November 17, 2006
TIME
LST
Temp Definition
°C
Dew Point Definition
°C
Rel Hum Definition
%
Precip. Amount Definition
mm

Wind Dir Definition
10's deg

Wind Spd Definition
km/h
Visibility Definition
km
Stn Press Definition
kPa
Hmdx Definition


Wind Chill Definition


Weather Definition


00:00 10.0 9.8 99   LegendMM LegendMM   98.17     LegendNANA
01:00 8.8 7.7 93   LegendMM LegendMM   98.23     LegendNANA
02:00 7.3 5.9 91   LegendMM LegendMM   98.42     LegendNANA
03:00 6.4 5.2 92   LegendMM LegendMM   98.51     LegendNANA
04:00 6.1 5.0 93   LegendMM LegendMM   98.57     LegendNANA
05:00 5.9 4.9 93   LegendMM LegendMM   98.65     LegendNANA
06:00 5.8 4.4 91   LegendMM LegendMM   98.75     LegendNANA
07:00 5.4 4.2 92   LegendMM LegendMM   98.92     LegendNANA
08:00 4.8 3.8 93   LegendMM LegendMM   99.04     LegendNANA
09:00 4.8 3.3 90   LegendMM LegendMM   99.16     LegendNANA
10:00 5.1 3.4 89   LegendMM LegendMM   99.26     LegendNANA
11:00 5.6 3.2 85   LegendMM LegendMM   99.37     LegendNANA
12:00 6.3 2.5 77   LegendMM LegendMM   99.41     LegendNANA
13:00 6.5 2.4 75   LegendMM LegendMM   99.49     LegendNANA
14:00 6.9 2.3 72   LegendMM LegendMM   99.57     LegendNANA
15:00 6.5 2.0 73   LegendMM LegendMM   99.69     LegendNANA
16:00 6.4 2.0 73   LegendMM LegendMM   99.81     LegendNANA
17:00 6.3 2.0 74   LegendMM LegendMM   99.92     LegendNANA
18:00 6.0 2.0 75   LegendMM LegendMM   100.00     LegendNANA
19:00 5.8 1.8 75   LegendMM LegendMM   100.05     LegendNANA
20:00 5.6 1.8 77   LegendMM LegendMM   100.11     LegendNANA
21:00 5.4 1.9 78   LegendMM LegendMM   100.16     LegendNANA
22:00 5.2 1.7 78   LegendMM LegendMM   100.20     LegendNANA
23:00 5.0 1.3 77   LegendMM LegendMM   100.24     LegendNANA

Notes on Data Quality.

Legend

  • E = Estimated
  • M = Missing
  • NA = Not Available*
  • [empty] = Indicates an unobserved value
Date modified: